This is the latest recevied weather packets stored in our database for station/object EB2EMZ-5. If no packets are shown the sender has not sent any weather packets the latest 1 day(s).
| Time | Temp. | Humidity | Pressure | Rain* | Wind** | Luminosity | Snow |
|---|---|---|---|---|---|---|---|
| 1778004037 | 23.33° C | 36% | 999.9 hPa | - | - | - | - |
| 1778003737 | 23.33° C | 36% | 999.9 hPa | - | - | - | - |
| 1778002821 | 23.33° C | 36% | 999.4 hPa | - | - | - | - |
| 1778002521 | 22.78° C | 36% | 999.3 hPa | - | - | - | - |
| 1778001921 | 23.33° C | 36% | 999.3 hPa | - | - | - | - |
| 1778001621 | 23.33° C | 36% | 999.3 hPa | - | - | - | - |
| 1778001321 | 23.33° C | 36% | 999.3 hPa | - | - | - | - |
| 1778001021 | 23.89° C | 36% | 999.3 hPa | - | - | - | - |
| 1778000721 | 23.89° C | 36% | 999.4 hPa | - | - | - | - |
| 1778000421 | 23.89° C | 36% | 999.4 hPa | - | - | - | - |
| 1778000121 | 23.89° C | 36% | 999.4 hPa | - | - | - | - |
| 1777999821 | 23.89° C | 36% | 999.4 hPa | - | - | - | - |
| 1777999521 | 24.44° C | 36% | 999.4 hPa | - | - | - | - |
| 1777999221 | 24.44° C | 36% | 999.4 hPa | - | - | - | - |
| 1777998921 | 24.44° C | 36% | 999.2 hPa | - | - | - | - |
| 1777998621 | 24.44° C | 36% | 999.3 hPa | - | - | - | - |
| 1777998325 | 24.44° C | 36% | 999.3 hPa | - | - | - | - |
| 1777998021 | 24.44° C | 36% | 999.2 hPa | - | - | - | - |
| 1777997721 | 25° C | 36% | 999.2 hPa | - | - | - | - |
| 1777997421 | 25° C | 35% | 999.2 hPa | - | - | - | - |
| 1777997121 | 25° C | 35% | 999.1 hPa | - | - | - | - |
| 1777996820 | 25° C | 36% | 999.1 hPa | - | - | - | - |
| 1777996520 | 25.56° C | 36% | 999.1 hPa | - | - | - | - |
| 1777996220 | 25.56° C | 35% | 999.2 hPa | - | - | - | - |
| 1777995920 | 25.56° C | 36% | 999 hPa | - | - | - | - |
* Rain since midnight (hover to see other rain measurements)
** Current wind speed in m/s (hover to see current wind gust speed)